Flag for Germany Weather past 2 weeks in Dorsten, North Rhine-Westphalia, Germany

Now
60 °F

Light rain. Low clouds.


Feels Like: 60 °F
Forecast: 53 / 62 °F
Wind: 2 mph from Southwest

Location: Essen

Current Time: Sep 20, 2014 at 12:01:08 PM

Latest Report: Sep 20, 2014 at 11:00 AM


Visibility: 6 mi

Pressure: 29.95 "Hg

Humidity: 97%

Dew point: 59 °F

Location of DorstenLocation

Historic Weather in Dorsten — Graph

°F

Dorsten temperature yesterday

Maximum temperature yesterday: 74 °F (at 5:00 PM)
Minimum temperature yesterday: 60 °F (at 4:00 AM)
Average temperature yesterday: 66 °F

Past Weeks' High & Low Weather Summary

 TemperatureHumidityPressure
High77 °F (Sep 17, 4:00 PM)100% (Sep 14, 6:00 AM)30.25 "Hg (Sep 14, 6:00 AM)
Low48 °F (Sep 12, 6:00 AM)49% (Sep 17, 6:00 PM)29.82 "Hg (Sep 19, 5:00 AM)
Average62 °F80%30.02 "Hg
* Reported Sep 5 11:00 AM — Sep 20 11:00 AM, Dorsten, Weather by CustomWeather, © 2014

Note: Actual official high and low records may vary slightly from our data, if they occured in-between our weather recording intervals... More about our weather records

Advertising

Dorsten weather history for previous 24 hours

 ConditionsComfort  
Time TempWeatherWind HumidityBarometerVisibility
11:00 AM
Sep 20
60 °FLight rain. Low clouds.2 mph97%29.95 "Hg6 mi
10:00 AM64 °FRain. Low clouds.5 mph93%29.96 "Hg1 mi
9:00 AM63 °FFog.2 mph96%29.94 "Hg3 mi
8:00 AM62 °FFog.2 mph98%29.93 "Hg3 mi
7:00 AM62 °FFog.2 mph98%29.92 "Hg3 mi
6:00 AM62 °FFog.2 mph98%29.92 "Hg3 mi
5:00 AM63 °FFog.2 mph98%29.91 "Hg3 mi
4:00 AM63 °FFog.1 mph99%29.91 "Hg2 mi
3:00 AM62 °FFog.2 mph99%29.92 "Hg2 mi
2:00 AM63 °FFog.1 mph98%29.92 "Hg3 mi
1:00 AM62 °FPassing clouds.1 mph98%29.92 "Hg7 mi
12:00 AM63 °FPassing clouds.1 mph94%29.91 "Hg7 mi
11:00 PM
Sep 19
64 °FClear.1 mph92%29.92 "Hg14 mi
10:00 PM64 °FOvercast.1 mph91%29.91 "Hg19 mi
9:00 PM65 °FOvercast.1 mph88%29.90 "Hg25 mi
8:00 PM67 °FPassing clouds.1 mph80%29.88 "Hg2 mi
7:00 PM68 °FOvercast.2 mph80%29.88 "Hg37 mi
6:00 PM71 °FOvercast.3 mph73%29.88 "Hg22 mi
5:00 PM74 °FOvercast.3 mph69%29.86 "Hg14 mi
4:00 PM73 °FPassing clouds.3 mph71%29.87 "Hg12 mi
3:00 PM72 °FOvercast.3 mph72%29.87 "Hg10 mi
2:00 PM73 °FOvercast.3 mph73%29.87 "Hg14 mi
1:00 PM71 °FPartly sunny.3 mph77%29.87 "Hg14 mi
12:00 PM70 °FOvercast.3 mph75%29.86 "Hg16 mi
Weather by CustomWeather, © 2014

See weather overviewHow to use our weather pages